Location: Igloolik
(69.3800°N, 81.8000°W)
Time: 08:01:42
(UTC-05:00)

Amateur Radio Satellites - All Passes

Search period start: 20 October 2014 07:31
Search period end: 21 October 2014 07:31
Location: Igloolik, 69.3800°N, 81.8000°W

Satellite Date Start Highest point End Downlink Frequencies (MHz)
Time Altitude Azimuth
Oscar 19 20 Oct 07:43:32 07:47:27 23° 0° (N) 07:51:22 437.125 CW, 437.150 USB
AO-27 20 Oct 07:48:17 07:52:26 24° 351° (N) 07:56:34 436.795 MHz FM
MaSat-1 20 Oct 07:49:28 07:52:42 45° 215° (SW) 07:55:33 437.345 MHz
HO-68 20 Oct 07:57:33 08:03:10 24° 78° (ENE) 08:08:45 435.675 MHz FM
STRAND 1 20 Oct 08:11:34 08:15:02 18° 282° (WNW) 08:18:31 ?
JAS-1B 20 Oct 08:23:13 08:28:00 29° 5° (N) 08:33:00 435.800 - 435.900 CW/SSB
UKube-1 20 Oct 08:26:10 08:27:59 12° 74° (ENE) 08:29:49 145.840 MHz, 145.915 MHz
Oscar 16 20 Oct 08:27:47 08:31:49 24° 11° (NNE) 08:35:51 437.025 USB, Beacon 2401.1428
RS-15 20 Oct 08:31:02 08:40:05 32° 247° (WSW) 08:49:23 29.354 - 29.394 USB, Beacon 29.352 USB
Gurwin Techsat 1B 20 Oct 08:32:45 08:36:55 24° 354° (N) 08:41:04 435.225 FM
JAS-2 20 Oct 08:37:11 08:44:04 58° 314° (NW) 08:51:34 435.800 - 435.900 CW/SSB, 435.910 FM
Uribyol 2 20 Oct 08:38:14 08:42:20 24° 4° (N) 08:46:25 436.500 FM
ITAMSAT 1 20 Oct 08:42:54 08:46:59 24° 5° (N) 08:51:05 435.822 SSB
Sapphire 20 Oct 08:46:29 08:51:54 68° 170° (S) 08:57:19 437.095 MHz 1200 baud AX-25 AFSK
TMSAT-1 20 Oct 08:47:24 08:51:33 24° 355° (N) 08:55:41 436.925 FM
Hamsat 20 Oct 08:51:23 08:55:11 34° 315° (NW) 08:58:58 145.90 MHz
SO-67 20 Oct 08:56:27 08:59:54 61° 298° (WNW) 09:03:19 435.3500 MHz FM
FUNcube-1 20 Oct 08:56:53 08:58:36 12° 71° (ENE) 09:00:18 145.950 - 145.970 MHz USB
AO-Echo 20 Oct 09:04:12 09:08:07 23° 12° (NNE) 09:12:09 ?
Uosat F 20 Oct 09:07:04 09:11:14 27° 338° (NNW) 09:15:25 435.120 FM
PCSat 20 Oct 09:09:37 09:15:03 70° 176° (S) 09:20:29 145.825 MHz
AO-7 20 Oct 09:09:56 09:17:51 52° 341° (NNW) 09:25:46 29.400 - 29.500 MHz
Oscar 11 20 Oct 09:11:41 09:14:59 21° 84° (E) 09:18:15 145.825 FM, Beacon 2401.500 USB
Oscar 19 20 Oct 09:21:21 09:25:40 28° 24° (NNE) 09:29:58 437.125 CW, 437.150 USB
MaSat-1 20 Oct 09:25:49 09:27:47 15° 239° (WSW) 09:29:37 437.345 MHz
AO-27 20 Oct 09:26:32 09:30:46 26° 15° (NNE) 09:35:01 436.795 MHz FM
HO-68 20 Oct 09:45:31 09:52:36 54° 103° (ESE) 09:59:38 435.675 MHz FM
ZACube-1 20 Oct 09:46:19 09:49:45 21° 84° (E) 09:53:05 437.345 MHz
UKube-1 20 Oct 10:01:22 10:05:28 36° 98° (E) 10:09:32 145.840 MHz, 145.915 MHz
Oscar 16 20 Oct 10:05:32 10:10:11 35° 35° (NE) 10:14:50 437.025 USB, Beacon 2401.1428
Gurwin Techsat 1B 20 Oct 10:11:20 10:15:42 27° 19° (NNE) 10:20:04 435.225 FM
JAS-1B 20 Oct 10:12:25 10:17:39 39° 32° (NNE) 10:23:02 435.800 - 435.900 CW/SSB
Saudisat 1A 20 Oct 10:16:07 10:19:39 24° 140° (SE) 10:23:12 436.775 MHz
Uribyol 2 20 Oct 10:16:11 10:20:44 31° 28° (NNE) 10:25:17 436.500 FM
ITAMSAT 1 20 Oct 10:20:51 10:25:25 31° 29° (NNE) 10:29:59 435.822 SSB
JAS-2 20 Oct 10:22:02 10:28:15 37° 338° (NNW) 10:35:01 435.800 - 435.900 CW/SSB, 435.910 FM
TMSAT-1 20 Oct 10:25:55 10:30:17 26° 19° (NNE) 10:34:38 436.925 FM
Hamsat 20 Oct 10:27:24 10:30:17 18° 338° (NNW) 10:33:10 145.90 MHz
SO-67 20 Oct 10:29:45 10:32:26 21° 320° (NW) 10:35:06 435.3500 MHz FM
Sapphire 20 Oct 10:29:45 10:35:10 66° 194° (SSW) 10:40:34 437.095 MHz 1200 baud AX-25 AFSK
FUNcube-1 20 Oct 10:32:13 10:36:20 35° 95° (E) 10:40:20 145.950 - 145.970 MHz USB
AO-Echo 20 Oct 10:41:22 10:45:53 34° 36° (NE) 10:50:32 ?
RS-15 20 Oct 10:44:16 10:48:26 13° 276° (W) 10:52:39 29.354 - 29.394 USB, Beacon 29.352 USB
Uosat F 20 Oct 10:45:02 10:48:54 23° 2° (N) 10:52:47 435.120 FM
Oscar 11 20 Oct 10:47:40 10:51:59 64° 107° (ESE) 10:56:17 145.825 FM, Beacon 2401.500 USB
PCSat 20 Oct 10:52:55 10:58:17 61° 201° (SSW) 11:03:38 145.825 MHz
Oscar 19 20 Oct 10:59:19 11:04:17 50° 48° (NE) 11:09:15 437.125 CW, 437.150 USB
AO-7 20 Oct 11:01:51 11:09:40 48° 8° (N) 11:17:29 29.400 - 29.500 MHz
AO-27 20 Oct 11:04:32 11:09:23 40° 39° (NE) 11:14:16 436.795 MHz FM
ZACube-1 20 Oct 11:22:32 11:27:00 66° 107° (ESE) 11:31:18 437.345 MHz
HO-68 20 Oct 11:33:34 11:40:47 77° 308° (NW) 11:47:59 435.675 MHz FM
UKube-1 20 Oct 11:37:38 11:42:02 74° 300° (WNW) 11:46:25 145.840 MHz, 145.915 MHz
Oscar 16 20 Oct 11:43:57 11:49:07 74° 59° (ENE) 11:54:17 437.025 USB, Beacon 2401.1428
Gurwin Techsat 1B 20 Oct 11:49:47 11:54:48 43° 43° (NE) 11:59:50 435.225 FM
Saudisat 1A 20 Oct 11:54:20 11:58:29 41° 163° (SSE) 12:02:39 436.775 MHz
Uribyol 2 20 Oct 11:54:27 11:59:36 59° 52° (NE) 12:04:46 436.500 FM
ITAMSAT 1 20 Oct 11:59:10 12:04:19 60° 52° (NE) 12:09:29 435.822 SSB
JAS-1B 20 Oct 12:02:15 12:08:00 80° 59° (ENE) 12:13:49 435.800 - 435.900 CW/SSB
Hamsat 20 Oct 12:02:40 12:05:02 15° 1° (N) 12:07:25 145.90 MHz
SO-67 20 Oct 12:03:10 12:04:26 12° 342° (NNW) 12:05:43 435.3500 MHz FM
TMSAT-1 20 Oct 12:04:20 12:09:20 43° 43° (NE) 12:14:22 436.925 FM
JAS-2 20 Oct 12:06:10 12:12:00 33° 3° (N) 12:18:23 435.800 - 435.900 CW/SSB, 435.910 FM
FUNcube-1 20 Oct 12:08:40 12:13:08 75° 298° (WNW) 12:17:28 145.950 - 145.970 MHz USB
Sapphire 20 Oct 12:13:04 12:18:10 42° 218° (SW) 12:23:15 437.095 MHz 1200 baud AX-25 AFSK
AO-Echo 20 Oct 12:19:14 12:24:13 74° 60° (ENE) 12:29:23 ?
Uosat F 20 Oct 12:22:19 12:26:36 29° 26° (NNE) 12:30:55 435.120 FM
Oscar 11 20 Oct 12:24:01 12:28:09 44° 310° (NW) 12:32:16 145.825 FM, Beacon 2401.500 USB
PCSat 20 Oct 12:36:14 12:41:08 35° 225° (SW) 12:46:00 145.825 MHz
Oscar 19 20 Oct 12:38:28 12:43:38 69° 251° (WSW) 12:48:47 437.125 CW, 437.150 USB
KITSAT 1 20 Oct 12:41:00 12:46:55 23° 111° (ESE) 12:52:52 435.175 FM
AO-27 20 Oct 12:43:22 12:48:38 87° 63° (ENE) 12:53:55 436.795 MHz FM
AO-7 20 Oct 12:53:33 13:01:40 63° 35° (NE) 13:09:50 29.400 - 29.500 MHz
ZACube-1 20 Oct 12:59:06 13:03:21 44° 310° (NW) 13:07:29 437.345 MHz
UKube-1 20 Oct 13:13:59 13:17:51 31° 323° (NW) 13:21:42 145.840 MHz, 145.915 MHz
HO-68 20 Oct 13:21:15 13:28:01 46° 333° (NNW) 13:34:48 435.675 MHz FM
Oscar 16 20 Oct 13:23:57 13:28:53 43° 262° (W) 13:33:49 437.025 USB, Beacon 2401.1428
Gurwin Techsat 1B 20 Oct 13:29:14 13:34:35 84° 246° (WSW) 13:39:58 435.225 FM
Saudisat 1A 20 Oct 13:33:22 13:37:36 45° 187° (S) 13:41:50 436.775 MHz
Uribyol 2 20 Oct 13:34:03 13:39:13 57° 255° (WSW) 13:44:26 436.500 FM
SO-67 20 Oct 13:35:54 13:36:12 10° 5° (N) 13:36:30 435.3500 MHz FM
Hamsat 20 Oct 13:36:50 13:39:49 19° 25° (NNE) 13:42:47 145.90 MHz
ITAMSAT 1 20 Oct 13:38:49 13:43:59 56° 255° (WSW) 13:49:10 435.822 SSB
TMSAT-1 20 Oct 13:43:44 13:49:05 84° 246° (WSW) 13:54:27 436.925 FM
FUNcube-1 20 Oct 13:45:12 13:49:07 30° 321° (NW) 13:52:56 145.950 - 145.970 MHz USB
JAS-2 20 Oct 13:49:48 13:55:49 41° 29° (NNE) 14:02:30 435.800 - 435.900 CW/SSB, 435.910 FM
JAS-1B 20 Oct 13:53:59 13:59:22 40° 264° (W) 14:04:47 435.800 - 435.900 CW/SSB
Sapphire 20 Oct 13:56:42 14:00:30 20° 242° (WSW) 14:04:17 437.095 MHz 1200 baud AX-25 AFSK
AO-Echo 20 Oct 13:58:41 14:03:24 42° 263° (W) 14:08:18 ?
Uosat F 20 Oct 13:59:50 14:04:45 54° 50° (NE) 14:09:41 435.120 FM
Oscar 11 20 Oct 14:00:18 14:03:38 22° 332° (NNW) 14:06:57 145.825 FM, Beacon 2401.500 USB
Oscar 19 20 Oct 14:19:38 14:23:53 25° 274° (W) 14:28:08 437.125 CW, 437.150 USB
PCSat 20 Oct 14:20:13 14:23:14 15° 248° (WSW) 14:26:15 145.825 MHz
AO-27 20 Oct 14:23:55 14:28:44 36° 266° (W) 14:33:34 436.795 MHz FM
KITSAT 1 20 Oct 14:33:04 14:40:37 46° 137° (SE) 14:48:10 435.175 FM
ZACube-1 20 Oct 14:35:33 14:39:01 22° 333° (NNW) 14:42:25 437.345 MHz
AO-7 20 Oct 14:46:09 14:54:29 79° 241° (WSW) 15:02:51 29.400 - 29.500 MHz
SO-50 20 Oct 14:49:33 14:52:43 19° 130° (SE) 14:55:57 436.795 FM
UKube-1 20 Oct 14:50:00 14:53:07 19° 346° (NNW) 14:56:14 145.840 MHz, 145.915 MHz
SO-67 20 Oct 15:06:04 15:08:02 15° 28° (NNE) 15:10:00 435.3500 MHz FM
Oscar 16 20 Oct 15:06:29 15:09:37 16° 285° (WNW) 15:12:46 437.025 USB, Beacon 2401.1428
HO-68 20 Oct 15:08:13 15:14:42 38° 359° (N) 15:21:12 435.675 MHz FM
Gurwin Techsat 1B 20 Oct 15:10:31 15:15:17 32° 269° (W) 15:20:03 435.225 FM
Hamsat 20 Oct 15:11:05 15:14:58 37° 47° (NE) 15:18:50 145.90 MHz
Saudisat 1A 20 Oct 15:12:40 15:16:35 31° 210° (SSW) 15:20:30 436.775 MHz
Uribyol 2 20 Oct 15:15:50 15:19:48 21° 278° (W) 15:23:48 436.500 FM
ITAMSAT 1 20 Oct 15:20:40 15:24:36 21° 279° (W) 15:28:33 435.822 SSB
FUNcube-1 20 Oct 15:21:26 15:24:32 19° 344° (NNW) 15:27:34 145.950 - 145.970 MHz USB
TMSAT-1 20 Oct 15:24:58 15:29:43 32° 269° (W) 15:34:29 436.925 FM
JAS-2 20 Oct 15:33:54 15:40:12 71° 54° (NE) 15:47:23 435.800 - 435.900 CW/SSB, 435.910 FM
Oscar 11 20 Oct 15:35:59 15:38:41 16° 356° (N) 15:41:23 145.825 FM, Beacon 2401.500 USB
Uosat F 20 Oct 15:38:36 15:43:37 62° 253° (WSW) 15:48:39 435.120 FM
AO-Echo 20 Oct 15:40:40 15:43:36 15° 287° (WNW) 15:46:36 ?
Oscar 10/S400 20 Oct 15:41:40 15:51:35 13° 146° (SSE) 16:06:30 145.825 - 145.975 CW/USB, Beacon 145.810 USB
JAS-1B 20 Oct 15:48:59 15:52:01 14° 291° (WNW) 15:55:05 435.800 - 435.900 CW/SSB
AO-27 20 Oct 16:07:22 16:09:52 13° 290° (WNW) 16:12:22 436.795 MHz FM
ZACube-1 20 Oct 16:11:23 16:14:16 17° 357° (N) 16:17:06 437.345 MHz
UKube-1 20 Oct 16:25:09 16:28:09 18° 9° (N) 16:31:10 145.840 MHz, 145.915 MHz
KITSAT 1 20 Oct 16:27:16 16:35:16 67° 163° (SSE) 16:43:17 435.175 FM
SO-50 20 Oct 16:28:03 16:32:17 36° 153° (SSE) 16:36:39 436.795 FM
SO-67 20 Oct 16:37:09 16:40:15 32° 50° (NE) 16:43:23 435.3500 MHz FM
UOSAT-12 20 Oct 16:39:12 16:42:35 20° 132° (SE) 16:45:59 437.025 FM, 437.400 FM
AO-7 20 Oct 16:40:52 16:48:30 39° 267° (W) 16:56:11 29.400 - 29.500 MHz
Hamsat 20 Oct 16:46:32 16:50:46 78° 250° (WSW) 16:54:59 145.90 MHz
OPAL 20 Oct 16:48:43 16:52:36 22° 88° (E) 16:56:26 ?
Saudisat 1A 20 Oct 16:52:35 16:55:08 15° 232° (SW) 16:57:40 436.775 MHz
HO-68 20 Oct 16:54:38 17:01:22 46° 25° (NNE) 17:08:08 435.675 MHz FM
Gurwin Techsat 1B 20 Oct 16:55:02 16:57:02 12° 294° (WNW) 16:59:01 435.225 FM
FUNcube-1 20 Oct 16:56:46 16:59:41 17° 8° (N) 17:02:34 145.950 - 145.970 MHz USB
TMSAT-1 20 Oct 17:09:26 17:11:25 12° 294° (WNW) 17:13:24 436.925 FM
Oscar 11 20 Oct 17:10:39 17:13:41 19° 19° (NNE) 17:16:42 145.825 FM, Beacon 2401.500 USB
Uosat F 20 Oct 17:19:28 17:23:24 22° 276° (W) 17:27:21 435.120 FM
JAS-2 20 Oct 17:19:29 17:25:39 55° 261° (W) 17:32:39 435.800 - 435.900 CW/SSB, 435.910 FM
ZACube-1 20 Oct 17:46:13 17:49:28 20° 20° (NNE) 17:52:40 437.345 MHz
UKube-1 20 Oct 17:59:40 18:03:20 27° 32° (NNE) 18:07:01 145.840 MHz, 145.915 MHz
SO-50 20 Oct 18:07:48 18:12:19 48° 177° (S) 18:16:56 436.795 FM
SO-67 20 Oct 18:09:38 18:13:05 72° 252° (WSW) 18:16:34 435.3500 MHz FM
UOSAT-12 20 Oct 18:17:27 18:21:48 37° 155° (SSE) 18:26:11 437.025 FM, 437.400 FM
KITSAT 1 20 Oct 18:22:19 18:30:22 70° 191° (S) 18:38:23 435.175 FM
Hamsat 20 Oct 18:23:54 18:27:22 24° 272° (W) 18:30:50 145.90 MHz
STRAND 1 20 Oct 18:25:00 18:29:17 26° 86° (E) 18:33:34 ?
OPAL 20 Oct 18:27:29 18:32:31 60° 111° (ESE) 18:37:27 ?
FUNcube-1 20 Oct 18:31:19 18:34:58 24° 31° (NNE) 18:38:34 145.950 - 145.970 MHz USB
AO-7 20 Oct 18:38:57 18:44:05 17° 295° (WNW) 18:49:15 29.400 - 29.500 MHz
HO-68 20 Oct 18:41:24 18:48:34 74° 50° (NE) 18:55:46 435.675 MHz FM
Oscar 11 20 Oct 18:45:05 18:48:58 33° 42° (NE) 18:52:51 145.825 FM, Beacon 2401.500 USB
JAS-2 20 Oct 19:07:23 19:12:24 24° 287° (WNW) 19:17:54 435.800 - 435.900 CW/SSB, 435.910 FM
ZACube-1 20 Oct 19:20:51 19:24:59 34° 43° (NE) 19:29:01 437.345 MHz
UKube-1 20 Oct 19:34:42 19:39:00 59° 55° (NE) 19:43:20 145.840 MHz, 145.915 MHz
SO-67 20 Oct 19:44:10 19:46:41 19° 274° (W) 19:49:12 435.3500 MHz FM
SO-50 20 Oct 19:47:58 19:52:24 41° 200° (SSW) 19:56:56 436.795 FM
UOSAT-12 20 Oct 19:56:52 20:01:26 48° 178° (S) 20:06:01 437.025 FM, 437.400 FM
STRAND 1 20 Oct 20:04:11 20:09:23 69° 110° (ESE) 20:14:33 ?
FUNcube-1 20 Oct 20:06:17 20:10:43 51° 53° (NE) 20:15:04 145.950 - 145.970 MHz USB
OPAL 20 Oct 20:06:33 20:11:31 57° 314° (NW) 20:16:25 ?
KITSAT 1 20 Oct 20:17:27 20:25:10 51° 218° (SW) 20:32:52 435.175 FM
Oscar 11 20 Oct 20:20:30 20:24:52 85° 65° (ENE) 20:29:14 145.825 FM, Beacon 2401.500 USB
HO-68 20 Oct 20:29:39 20:36:42 56° 255° (WSW) 20:43:48 435.675 MHz FM
ZACube-1 20 Oct 20:56:29 21:01:05 86° 65° (ENE) 21:05:37 437.345 MHz
RS-15 20 Oct 21:05:52 21:11:41 16° 90° (E) 21:17:31 29.354 - 29.394 USB, Beacon 29.352 USB
UKube-1 20 Oct 21:11:09 21:15:23 47° 257° (WSW) 21:19:39 145.840 MHz, 145.915 MHz
SO-50 20 Oct 21:28:25 21:32:10 23° 223° (SW) 21:35:58 436.795 FM
UOSAT-12 20 Oct 21:36:40 21:41:06 40° 202° (SSW) 21:45:31 437.025 FM, 437.400 FM
FUNcube-1 20 Oct 21:42:38 21:47:10 57° 256° (WSW) 21:51:37 145.950 - 145.970 MHz USB
STRAND 1 20 Oct 21:43:34 21:48:34 50° 313° (NW) 21:53:32 ?
OPAL 20 Oct 21:45:22 21:49:51 32° 338° (NNW) 21:54:15 ?
Oscar 11 20 Oct 21:57:40 22:01:32 31° 267° (W) 22:05:25 145.825 FM, Beacon 2401.500 USB
KITSAT 1 20 Oct 22:12:39 22:19:06 27° 244° (WSW) 22:25:33 435.175 FM
HO-68 20 Oct 22:20:22 22:26:04 25° 281° (W) 22:31:48 435.675 MHz FM
ZACube-1 20 Oct 22:33:52 22:37:59 32° 267° (W) 22:42:03 437.345 MHz
UKube-1 20 Oct 22:49:57 22:52:39 16° 280° (W) 22:55:21 145.840 MHz, 145.915 MHz
RS-15 20 Oct 23:11:00 23:20:27 37° 120° (ESE) 23:30:00 29.354 - 29.394 USB, Beacon 29.352 USB
UOSAT-12 20 Oct 23:16:46 23:20:25 22° 225° (SW) 23:24:02 437.025 FM, 437.400 FM
FUNcube-1 20 Oct 23:21:09 23:24:28 19° 278° (W) 23:27:45 145.950 - 145.970 MHz USB
STRAND 1 20 Oct 23:22:41 23:27:02 28° 336° (NNW) 23:31:22 ?
OPAL 20 Oct 23:23:35 23:27:47 27° 1° (N) 23:31:57 ?
JAS-1B 20 Oct 23:30:30 23:31:56 11° 61° (ENE) 23:33:25 435.800 - 435.900 CW/SSB
Oscar 11 20 Oct 23:38:37 23:39:09 10° 290° (WNW) 23:39:40 145.825 FM, Beacon 2401.500 USB
Oscar 16 20 Oct 23:42:31 23:43:34 11° 65° (ENE) 23:44:36 437.025 USB, Beacon 2401.1428
KITSAT 1 21 Oct 00:10:12 00:11:46 11° 270° (W) 00:13:20 435.175 FM
AO-Echo 21 Oct 00:12:44 00:14:22 11° 66° (ENE) 00:16:01 ?
ZACube-1 21 Oct 00:14:32 00:15:48 11° 290° (WNW) 00:17:03 437.345 MHz
Oscar 19 21 Oct 00:35:24 00:38:58 19° 78° (ENE) 00:42:31 437.125 CW, 437.150 USB
AO-27 21 Oct 00:42:21 00:44:50 13° 70° (ENE) 00:47:19 436.795 MHz FM
MaSat-1 21 Oct 00:52:31 00:54:42 15° 120° (ESE) 00:56:46 437.345 MHz
STRAND 1 21 Oct 01:01:07 01:05:06 23° 0° (N) 01:09:04 ?
OPAL 21 Oct 01:01:13 01:05:46 34° 25° (NNE) 01:10:16 ?
JAS-1B 21 Oct 01:19:47 01:24:56 30° 88° (E) 01:30:39 435.800 - 435.900 CW/SSB
Oscar 16 21 Oct 01:20:14 01:24:44 29° 89° (E) 01:29:12 437.025 USB, Beacon 2401.1428
RS-15 21 Oct 01:20:23 01:30:58 60° 150° (SSE) 01:41:45 29.354 - 29.394 USB, Beacon 29.352 USB
Gurwin Techsat 1B 21 Oct 01:30:53 01:34:15 17° 74° (ENE) 01:37:36 435.225 FM
Uribyol 2 21 Oct 01:31:51 01:35:56 22° 83° (E) 01:40:00 436.500 FM
ITAMSAT 1 21 Oct 01:36:43 01:40:51 23° 83° (E) 01:44:58 435.822 SSB
TMSAT-1 21 Oct 01:45:00 01:48:22 17° 74° (ENE) 01:51:43 436.925 FM
AO-Echo 21 Oct 01:50:16 01:54:52 31° 90° (E) 01:59:33 ?
Oscar 19 21 Oct 02:14:31 02:19:33 50° 102° (ESE) 02:24:32 437.125 CW, 437.150 USB
AO-27 21 Oct 02:21:08 02:25:59 35° 94° (E) 02:30:47 436.795 MHz FM
MaSat-1 21 Oct 02:26:16 02:29:50 38° 141° (SE) 02:33:00 437.345 MHz
JAS-2 21 Oct 02:27:36 02:29:08 11° 47° (NE) 02:30:41 435.800 - 435.900 CW/SSB, 435.910 FM
AO-7 21 Oct 02:30:47 02:36:12 18° 67° (ENE) 02:41:36 29.400 - 29.500 MHz
STRAND 1 21 Oct 02:38:49 02:43:10 28° 24° (NNE) 02:47:32 ?
OPAL 21 Oct 02:39:05 02:44:09 62° 48° (NE) 02:49:10 ?
Oscar 16 21 Oct 02:59:39 03:04:51 80° 113° (ESE) 03:10:00 437.025 USB, Beacon 2401.1428
Gurwin Techsat 1B 21 Oct 03:10:31 03:15:38 44° 98° (E) 03:20:44 435.225 FM
JAS-1B 21 Oct 03:10:45 03:16:38 75° 112° (ESE) 03:23:19 435.800 - 435.900 CW/SSB
Uribyol 2 21 Oct 03:11:15 03:16:29 60° 106° (ESE) 03:21:39 436.500 FM
ITAMSAT 1 21 Oct 03:16:10 03:21:24 61° 107° (ESE) 03:26:36 435.822 SSB
TMSAT-1 21 Oct 03:24:36 03:29:42 44° 98° (E) 03:34:47 436.925 FM
AO-Echo 21 Oct 03:29:07 03:34:21 81° 112° (ESE) 03:39:41 ?
Uosat F 21 Oct 03:31:40 03:35:11 18° 79° (E) 03:38:41 435.120 FM
RS-15 21 Oct 03:31:43 03:42:32 71° 181° (S) 03:53:38 29.354 - 29.394 USB, Beacon 29.352 USB
Oscar 19 21 Oct 03:54:03 03:59:09 64° 305° (NW) 04:04:13 437.125 CW, 437.150 USB
AO-27 21 Oct 04:00:47 04:06:05 88° 297° (WNW) 04:11:21 436.795 MHz FM
MaSat-1 21 Oct 04:01:43 04:05:25 78° 162° (SSE) 04:08:39 437.345 MHz
JAS-2 21 Oct 04:11:23 04:17:09 24° 74° (ENE) 04:23:14 435.800 - 435.900 CW/SSB, 435.910 FM
STRAND 1 21 Oct 04:16:40 04:21:39 51° 48° (NE) 04:26:39 ?
OPAL 21 Oct 04:18:11 04:23:14 55° 251° (WSW) 04:28:14 ?
Hamsat 21 Oct 04:19:35 04:20:06 10° 70° (ENE) 04:20:38 145.90 MHz
AO-7 21 Oct 04:23:54 04:31:40 41° 95° (E) 04:39:25 29.400 - 29.500 MHz
Oscar 16 21 Oct 04:39:11 04:44:04 44° 316° (NW) 04:48:56 437.025 USB, Beacon 2401.1428
Gurwin Techsat 1B 21 Oct 04:50:40 04:56:01 74° 301° (WNW) 05:01:20 435.225 FM
Uribyol 2 21 Oct 04:50:55 04:56:04 57° 309° (NW) 05:01:11 436.500 FM
Sapphire 21 Oct 04:52:23 04:56:08 19° 118° (ESE) 04:59:55 437.095 MHz 1200 baud AX-25 AFSK
ITAMSAT 1 21 Oct 04:55:51 05:00:59 56° 310° (NW) 05:06:06 435.822 SSB
JAS-1B 21 Oct 05:01:45 05:07:21 51° 316° (NW) 05:13:35 435.800 - 435.900 CW/SSB
TMSAT-1 21 Oct 05:04:42 05:10:02 74° 301° (WNW) 05:15:21 436.925 FM
AO-Echo 21 Oct 05:08:04 05:12:58 44° 315° (NW) 05:17:58 ?
Uosat F 21 Oct 05:10:13 05:15:10 50° 103° (ESE) 05:20:06 435.120 FM
PCSat 21 Oct 05:14:34 05:18:51 24° 124° (SE) 05:23:09 145.825 MHz
Oscar 19 21 Oct 05:33:27 05:37:58 32° 329° (NNW) 05:42:27 437.125 CW, 437.150 USB
MaSat-1 21 Oct 05:37:41 05:41:14 89° 2° (N) 05:44:19 437.345 MHz
AO-27 21 Oct 05:40:27 05:45:20 40° 321° (NW) 05:50:12 436.795 MHz FM
RS-15 21 Oct 05:43:28 05:54:05 59° 211° (SSW) 06:05:02 29.354 - 29.394 USB, Beacon 29.352 USB
Hamsat 21 Oct 05:53:38 05:57:25 32° 93° (E) 06:01:11 145.90 MHz
STRAND 1 21 Oct 05:55:42 06:00:51 68° 251° (WSW) 06:06:02 ?
JAS-2 21 Oct 05:56:43 06:03:48 53° 98° (E) 06:11:25 435.800 - 435.900 CW/SSB, 435.910 FM
OPAL 21 Oct 05:59:26 06:03:12 20° 274° (W) 06:06:58 ?
AO-7 21 Oct 06:17:14 06:25:37 82° 121° (ESE) 06:33:59 29.400 - 29.500 MHz
Oscar 16 21 Oct 06:18:24 06:22:37 26° 340° (NNW) 06:26:49 437.025 USB, Beacon 2401.1428
Uribyol 2 21 Oct 06:30:23 06:34:54 30° 333° (NNW) 06:39:25 436.500 FM
Gurwin Techsat 1B 21 Oct 06:30:44 06:35:33 36° 325° (NW) 06:40:22 435.225 FM
Sapphire 21 Oct 06:33:24 06:38:28 41° 141° (SE) 06:43:34 437.095 MHz 1200 baud AX-25 AFSK
ITAMSAT 1 21 Oct 06:35:19 06:39:50 30° 333° (NNW) 06:44:20 435.822 SSB
TMSAT-1 21 Oct 06:44:43 06:49:31 36° 325° (NW) 06:54:19 436.925 FM
AO-Echo 21 Oct 06:46:43 06:50:55 26° 338° (NNW) 06:55:12 ?
Uosat F 21 Oct 06:49:10 06:54:12 64° 306° (NW) 06:59:13 435.120 FM
SO-67 21 Oct 06:51:57 06:54:42 21° 89° (E) 06:57:26 435.3500 MHz FM
JAS-1B 21 Oct 06:52:18 06:57:16 31° 342° (NNW) 07:02:37 435.800 - 435.900 CW/SSB
PCSat 21 Oct 06:56:10 07:01:23 48° 148° (SSE) 07:06:37 145.825 MHz
Oscar 19 21 Oct 07:12:18 07:16:15 23° 353° (N) 07:20:12 437.125 CW, 437.150 USB
MaSat-1 21 Oct 07:13:37 07:16:55 55° 209° (SSW) 07:19:49 437.345 MHz
AO-27 21 Oct 07:19:42 07:23:57 26° 344° (NNW) 07:28:12 436.795 MHz FM
